Port Huron, MI

5:39 AM EDT on May 29, 2017 (GMT -0400)
Saint Clair County International

Weather History for KPHN - January, 2012

Change the Weather History Date:

Sunday, January 15, 2012

  Actual Average (KMTC) Record (KMTC)
Temperature  
Mean Temperature 14 °F -  
Max Temperature 24 °F 27 °F 53 °F (1953)
Min Temperature 5 °F 15 °F -5 °F (1963)
Degree Days  
Heating Degree Days 50    
Moisture  
Dew Point 6 °F    
Average Humidity 69    
Maximum Humidity 85    
Minimum Humidity 42    
Precipitation  
Precipitation 0.00 in - - ()
Sea Level Pressure  
Sea Level Pressure 30.39 in    
Wind  
Wind Speed 4 mph (SSE)    
Max Wind Speed 10 mph    
Max Gust Speed -    
Visibility 10 miles    
Events      
Averages and records for this station are not official NWS values.
T = Trace of Precipitation, MM = Missing Value Source: NWS Daily Summary

Daily Weather History Graph

Daily Weather History Graph

Search for Another Location

Airport or City:

Trip Planner

Search our weather history database for the weather conditions in past years. The results will help you decide how hot, cold, wet, or windy it might be!

Date:

Astronomy

Jan. 15, 2012 Rise Set
Actual Time 7:58 AM EST 5:20 PM EST
Civil Twilight 7:27 AM EST 5:52 PM EST
Nautical Twilight 6:52 AM EST 6:27 PM EST
Astronomical Twilight 6:18 AM EST 7:01 PM EST
Moon No Moon Rise 11:03 AM EST (1/15)
Length of Visible Light 10h 24m
Length of Day
9h 22m
Waning Gibbous, 58% of the Moon is Illuminated
Jan 15
Waning Gibbous
Jan 16
Last Quarter
Jan 23
New
Jan 30
First Quarter
Feb 7
Full

Hourly Weather History & Observations

Time (EST) Temp. Windchill Dew Point Humidity Pressure Visibility Wind Dir Wind Speed Gust Speed Precip Events Conditions
12:18 AM 12.2 °F 4.3 °F 3.2 °F 67% 30.26 in 10.0 mi East 4.6 mph - N/A   Overcast
12:38 AM 12.2 °F 6.1 °F 3.2 °F 67% 30.27 in 10.0 mi SE 3.5 mph - N/A   Overcast
12:58 AM 12.2 °F 6.1 °F 3.2 °F 67% 30.27 in 10.0 mi ESE 3.5 mph - N/A   Overcast
1:18 AM 12.2 °F 2.9 °F 5.0 °F 73% 30.27 in 10.0 mi East 5.8 mph - N/A   Overcast
1:37 AM 12.2 °F 2.9 °F 3.2 °F 67% 30.27 in 10.0 mi East 5.8 mph - N/A   Overcast
1:58 AM 10.4 °F 4.0 °F 3.2 °F 73% 30.28 in 10.0 mi East 3.5 mph - N/A   Overcast
2:18 AM 10.4 °F -0.4 °F 3.2 °F 73% 30.29 in 10.0 mi East 6.9 mph - N/A   Overcast
2:38 AM 10.4 °F -0.4 °F 1.4 °F 67% 30.29 in 10.0 mi East 6.9 mph - N/A   Overcast
2:58 AM 10.4 °F - 1.4 °F 67% 30.31 in 10.0 mi Calm Calm - N/A   Overcast
3:18 AM 10.4 °F 2.2 °F 1.4 °F 67% 30.31 in 10.0 mi ESE 4.6 mph - N/A   Overcast
3:38 AM 10.4 °F - 3.2 °F 73% 30.32 in 10.0 mi Calm Calm - N/A   Overcast
3:58 AM 8.6 °F - 3.2 °F 79% 30.32 in 10.0 mi Calm Calm - N/A   Mostly Cloudy
4:18 AM 8.6 °F 2.0 °F 1.4 °F 73% 30.33 in 10.0 mi ESE 3.5 mph - N/A   Scattered Clouds
4:38 AM 6.8 °F - 1.4 °F 79% 30.34 in 10.0 mi Calm Calm - N/A   Clear
4:58 AM 6.8 °F - 1.4 °F 79% 30.35 in 10.0 mi Calm Calm - N/A   Clear
5:18 AM 5.0 °F - 1.4 °F 85% 30.36 in 10.0 mi Calm Calm - N/A   Scattered Clouds
5:38 AM 5.0 °F - 1.4 °F 85% 30.36 in 10.0 mi Calm Calm - N/A   Mostly Cloudy
5:58 AM 5.0 °F - 1.4 °F 85% 30.37 in 10.0 mi Calm Calm - N/A   Clear
6:18 AM 5.0 °F - 1.4 °F 85% 30.37 in 10.0 mi Calm Calm - N/A   Scattered Clouds
6:38 AM 5.0 °F - 1.4 °F 85% 30.37 in 10.0 mi Calm Calm - N/A   Clear
6:58 AM 5.0 °F - 1.4 °F 85% 30.38 in 10.0 mi Calm Calm - N/A   Mostly Cloudy
7:18 AM 6.8 °F - 3.2 °F 85% 30.39 in 10.0 mi Calm Calm - N/A   Overcast
7:37 AM 6.8 °F - 1.4 °F 79% 30.40 in 10.0 mi Calm Calm - N/A   Scattered Clouds
7:58 AM 5.0 °F - 1.4 °F 85% 30.41 in 10.0 mi Calm Calm - N/A   Clear
8:18 AM 5.0 °F - 1.4 °F 85% 30.41 in 10.0 mi Calm Calm - N/A   Mostly Cloudy
8:38 AM 8.6 °F 0.1 °F 3.2 °F 79% 30.42 in 10.0 mi ESE 4.6 mph - N/A   Overcast
8:58 AM 10.4 °F 4.0 °F 5.0 °F 79% 30.43 in 10.0 mi South 3.5 mph - N/A   Overcast
9:18 AM 10.4 °F 4.0 °F 3.2 °F 73% 30.44 in 10.0 mi SSE 3.5 mph - N/A   Overcast
9:38 AM 12.2 °F 1.7 °F 5.0 °F 73% 30.44 in 10.0 mi SSE 6.9 mph - N/A   Overcast
9:58 AM 12.2 °F - 3.2 °F 67% 30.45 in 10.0 mi Calm Calm - N/A   Overcast
10:18 AM 14.0 °F 5.1 °F 3.2 °F 62% 30.44 in 10.0 mi SSE 5.8 mph - N/A   Overcast
10:38 AM 15.8 °F 7.2 °F 1.4 °F 53% 30.45 in 10.0 mi South 5.8 mph - N/A   Overcast
10:58 AM 15.8 °F - 1.4 °F 53% 30.46 in 10.0 mi Calm Calm - N/A   Overcast
11:17 AM 17.6 °F 12.3 °F 3.2 °F 53% 30.46 in 10.0 mi SSW 3.5 mph - N/A   Overcast
11:38 AM 17.6 °F - 1.4 °F 49% 30.45 in 10.0 mi Calm Calm - N/A   Overcast
11:58 AM 19.4 °F 12.8 °F 1.4 °F 46% 30.45 in 10.0 mi South 4.6 mph - N/A   Overcast
12:18 PM 21.2 °F 16.4 °F 1.4 °F 42% 30.45 in 10.0 mi SSW 3.5 mph - N/A   Overcast
12:38 PM 21.2 °F 13.6 °F 5.0 °F 50% 30.44 in 10.0 mi SSW 5.8 mph - N/A   Mostly Cloudy
12:58 PM 23.0 °F 17.0 °F 8.6 °F 54% 30.44 in 10.0 mi South 4.6 mph - N/A   Scattered Clouds
1:18 PM 23.0 °F 13.9 °F 10.4 °F 59% 30.43 in 10.0 mi SSW 8.1 mph - N/A   Scattered Clouds
1:38 PM 23.0 °F 13.1 °F 10.4 °F 59% 30.43 in 10.0 mi SSW 9.2 mph - N/A   Clear
1:58 PM 23.0 °F 17.0 °F 10.4 °F 59% 30.42 in 10.0 mi South 4.6 mph - N/A   Clear
2:18 PM 23.0 °F 14.7 °F 12.2 °F 63% 30.42 in 10.0 mi South 6.9 mph - N/A   Clear
2:38 PM 24.8 °F 16.1 °F 12.2 °F 59% 30.41 in 10.0 mi SSW 8.1 mph - N/A   Clear
2:58 PM 24.8 °F 17.9 °F 14.0 °F 64% 30.41 in 10.0 mi ENE 5.8 mph - N/A   Scattered Clouds
3:18 PM 24.8 °F 16.9 °F 14.0 °F 64% 30.41 in 10.0 mi SSE 6.9 mph - N/A   Scattered Clouds
3:37 PM 24.8 °F 16.1 °F 14.0 °F 64% 30.41 in 10.0 mi SE 8.1 mph - N/A   Scattered Clouds
3:58 PM 24.8 °F 16.1 °F 15.8 °F 69% 30.40 in 10.0 mi SE 8.1 mph - N/A   Clear
4:18 PM 24.8 °F 16.9 °F 14.0 °F 64% 30.41 in 10.0 mi SSE 6.9 mph - N/A   Clear
4:38 PM 24.8 °F 14.6 °F 14.0 °F 64% 30.41 in 10.0 mi SSE 10.4 mph - N/A   Clear
4:58 PM 23.0 °F 13.9 °F 14.0 °F 68% 30.42 in 10.0 mi South 8.1 mph - N/A   Clear
5:18 PM 23.0 °F 14.7 °F 14.0 °F 68% 30.41 in 10.0 mi SSE 6.9 mph - N/A   Scattered Clouds
5:38 PM 21.2 °F 13.6 °F 14.0 °F 74% 30.41 in 10.0 mi SE 5.8 mph - N/A   Mostly Cloudy
5:58 PM 23.0 °F 15.8 °F 14.0 °F 68% 30.41 in 10.0 mi SSE 5.8 mph - N/A   Mostly Cloudy
6:17 PM 23.0 °F 15.8 °F 15.8 °F 74% 30.41 in 10.0 mi SSE 5.8 mph - N/A   Overcast
6:38 PM 23.0 °F 15.8 °F 15.8 °F 74% 30.40 in 10.0 mi SSE 5.8 mph - N/A   Overcast
6:58 PM 23.0 °F 14.7 °F 17.6 °F 80% 30.40 in 10.0 mi South 6.9 mph - N/A   Overcast
7:18 PM 23.0 °F 14.7 °F 17.6 °F 80% 30.40 in 10.0 mi South 6.9 mph - N/A   Scattered Clouds
7:38 PM 23.0 °F 13.9 °F 17.6 °F 80% 30.41 in 10.0 mi South 8.1 mph - N/A   Clear
7:58 PM 23.0 °F 13.9 °F 17.6 °F 80% 30.40 in 10.0 mi South 8.1 mph - N/A   Clear
8:18 PM 24.8 °F 15.3 °F 17.6 °F 74% 30.40 in 10.0 mi South 9.2 mph - N/A   Clear
8:38 PM 24.8 °F 16.1 °F 17.6 °F 74% 30.39 in 10.0 mi South 8.1 mph - N/A   Clear
8:58 PM 23.0 °F 13.9 °F 17.6 °F 80% 30.39 in 10.0 mi South 8.1 mph - N/A   Clear
9:18 PM 24.8 °F 15.3 °F 17.6 °F 74% 30.38 in 10.0 mi South 9.2 mph - N/A   Clear
9:38 PM 23.0 °F 14.7 °F 15.8 °F 74% 30.37 in 10.0 mi South 6.9 mph - N/A   Clear
9:58 PM 23.0 °F 12.4 °F 17.6 °F 80% 30.36 in 10.0 mi South 10.4 mph - N/A   Clear
10:17 PM 23.0 °F 13.1 °F 17.6 °F 80% 30.35 in 10.0 mi South 9.2 mph - N/A   Clear
10:38 PM 23.0 °F 13.9 °F 17.6 °F 80% 30.35 in 10.0 mi South 8.1 mph - N/A   Scattered Clouds
10:58 PM 23.0 °F 13.1 °F 17.6 °F 80% 30.34 in 10.0 mi South 9.2 mph - N/A   Clear
11:18 PM 23.0 °F 14.7 °F 17.6 °F 80% 30.34 in 10.0 mi South 6.9 mph - N/A   Clear
11:38 PM 21.2 °F 12.6 °F 17.6 °F 86% 30.34 in 10.0 mi South 6.9 mph - N/A   Clear
11:58 PM 21.2 °F 13.6 °F 17.6 °F 86% 30.33 in 10.0 mi SSE 5.8 mph - N/A   Clear